St. Thomas, VI

12:14 PM AST on April 19, 2018 (GMT -0400)
King

Weather History for TIST - November, 2012

Change the Weather History Date:

Thursday, November 1, 2012

  Actual Average Record
Temperature  
Mean Temperature 83 °F 82 °F  
Max Temperature 88 °F 88 °F 95 °F (1993)
Min Temperature 78 °F 76 °F 70 °F (1954)
Cooling Degree Days 18 17  
Month to date cooling degree days 18 17  
Year to date cooling degree days 4921 5128  
Growing Degree Days 33 (Base 50)    
Moisture  
Dew Point 75 °F    
Average Humidity 80    
Maximum Humidity 97    
Minimum Humidity 63    
Precipitation  
Precipitation 0.06 in 0.20 in 1.14 in (2016)
Month to date precipitation 0.06 0.20  
Year to date precipitation 27.83 31.35  
Sea Level Pressure  
Sea Level Pressure 29.94 in    
Wind  
Wind Speed 5 mph (East)    
Max Wind Speed 13 mph    
Max Gust Speed 18 mph    
Visibility 10 miles    
Events Rain    
T = Trace of Precipitation, MM = Missing Value Source: NWS Daily Summary

Daily Weather History Graph

Daily Weather History Graph

Search for Another Location

Airport or City:

Astronomy

Nov. 01, 2012 Rise Set
Actual Time 6:19 AM AST 5:46 PM AST
Civil Twilight 5:57 AM AST 6:09 PM AST
Nautical Twilight 5:31 AM AST 6:35 PM AST
Astronomical Twilight 5:05 AM AST 7:01 PM AST
Moon 7:57 PM AST (11/1) 8:32 AM AST (11/1)
Length of Visible Light 12h 12m
Length of Day
11h 27m
Waning Gibbous, 93% of the Moon is Illuminated
Nov 1
Waning Gibbous
Nov 6
Last Quarter
Nov 13
New
Nov 20
First Quarter
Nov 28
Full

Hourly Weather History & Observations

Time (AST) Temp. Heat Index Dew Point Humidity Pressure Visibility Wind Dir Wind Speed Gust Speed Precip Events Conditions
12:53 AM 80.1 °F 85.4 °F 75.9 °F 87% 29.94 in 10.0 mi East 3.5 mph - N/A Rain Heavy Rain
1:53 AM 80.1 °F 85.4 °F 75.9 °F 87% 29.93 in 10.0 mi Calm Calm - N/A Rain Heavy Rain
2:53 AM 81.0 °F 87.9 °F 77.0 °F 88% 29.93 in 10.0 mi Calm Calm - N/A Rain Heavy Rain
3:53 AM 79.0 °F - 77.0 °F 94% 29.92 in 10.0 mi Calm Calm - N/A Rain Heavy Rain
4:53 AM 80.1 °F 85.4 °F 75.9 °F 87% 29.92 in 10.0 mi SE 4.6 mph - N/A Rain Heavy Rain
5:53 AM 79.0 °F - 75.9 °F 90% 29.94 in 10.0 mi Calm Calm - N/A Rain Heavy Rain
6:53 AM 79.0 °F - 75.0 °F 88% 29.95 in 10.0 mi Calm Calm - N/A Rain Heavy Rain
7:53 AM 82.9 °F 90.2 °F 75.0 °F 77% 29.96 in 10.0 mi East 9.2 mph - N/A Rain Heavy Rain
8:53 AM 84.9 °F 93.3 °F 75.0 °F 72% 29.98 in 10.0 mi East 5.8 mph - N/A Rain Heavy Rain
9:53 AM 87.1 °F 95.4 °F 73.9 °F 65% 29.98 in 10.0 mi NE 6.9 mph - N/A Rain Heavy Rain
10:53 AM 84.9 °F 93.3 °F 75.0 °F 72% 29.99 in 10.0 mi SSE 6.9 mph - N/A   Mostly Cloudy
11:20 AM 84.2 °F 92.3 °F 75.2 °F 74% 29.97 in 10.0 mi South 5.8 mph - N/A   Overcast
11:41 AM 84.2 °F 92.3 °F 75.2 °F 74% 29.97 in 10.0 mi SSE 6.9 mph - N/A   Mostly Cloudy
11:53 AM 84.0 °F 91.9 °F 75.0 °F 74% 29.96 in 10.0 mi SE 6.9 mph - N/A   Overcast
12:53 PM 84.0 °F 91.2 °F 73.9 °F 72% 29.93 in 10.0 mi Calm Calm - N/A   Scattered Clouds
1:53 PM 87.1 °F 96.3 °F 75.0 °F 67% 29.91 in 10.0 mi Variable 3.5 mph - N/A   Partly Cloudy
2:53 PM 87.1 °F 95.4 °F 73.9 °F 65% 29.89 in 10.0 mi NE 9.2 mph - N/A   Clear
3:53 PM 86.0 °F 93.8 °F 73.9 °F 67% 29.88 in 10.0 mi ENE 8.1 mph - N/A   Partly Cloudy
4:53 PM 84.0 °F 91.2 °F 73.9 °F 72% 29.90 in 10.0 mi ENE 10.4 mph - N/A   Clear
5:53 PM 82.0 °F 87.9 °F 73.9 °F 76% 29.90 in 10.0 mi ENE 8.1 mph - N/A   Clear
6:53 PM 82.0 °F 87.9 °F 73.9 °F 76% 29.91 in 10.0 mi NE 8.1 mph - N/A   Partly Cloudy
7:18 PM 80.6 °F 86.2 °F 75.2 °F 84% 29.92 in 10.0 mi ENE 6.9 mph - N/A   Overcast
7:26 PM 80.6 °F 86.2 °F 75.2 °F 84% 29.92 in 10.0 mi ENE 6.9 mph - N/A   Mostly Cloudy
7:53 PM 80.1 °F 84.2 °F 73.0 °F 79% 29.93 in 10.0 mi ENE 10.4 mph - N/A   Partly Cloudy
8:53 PM 80.1 °F 84.2 °F 73.0 °F 79% 29.95 in 10.0 mi ENE 4.6 mph - N/A   Clear
9:53 PM 81.0 °F 86.2 °F 73.9 °F 79% 29.95 in 10.0 mi East 6.9 mph - N/A   Mostly Cloudy
10:53 PM 80.1 °F 84.5 °F 73.9 °F 81% 29.95 in 10.0 mi East 9.2 mph - N/A   Clear
11:53 PM 79.0 °F - 73.0 °F 82% 29.95 in 10.0 mi East 6.9 mph - N/A   Clear